FW6463 Weather Reports


Display with metric or nautical units.
time (UTC)temp
F
wind
direction
speed
MPH
gust
MPH
rain 1hr
in
rain 24hr
in
rain mn
in
humidity
%
barometer
mb
20260904065020 69 223 1.0 3.0 0.00 0.36 0.00 99 1016.8
20260904064019 69 183 2.0 4.0 0.00 0.36 0.00 99 1016.7
20260904063019 69 240 2.0 5.0 0.00 0.36 0.00 99 1016.5
20260904062017 69 245 4.0 7.0 0.00 0.36 0.00 99 1016.1
20260904061016 69 255 2.0 4.0 0.00 0.36 0.00 99 1016.3
20260904060016 69 192 3.0 4.0 0.00 0.36 0.00 99 1016.5
20260904055020 69 222 4.0 7.0 0.00 0.36 0.00 99 1016.8
20260904054025 69 266 4.0 6.0 0.00 0.36 0.00 99 1017.0
20260904053030 68 232 3.0 7.0 0.00 0.36 0.00 99 1017.1
20260904052017 68 242 3.0 8.0 0.00 0.36 0.00 99 1016.7
20260904051022 68 207 4.0 6.0 0.00 0.36 0.00 99 1017.2
20260904050027 68 251 4.0 5.0 0.00 0.36 0.00 99 1017.1
20260904045052 69 199 2.0 4.0 0.00 0.36 0.00 99 1017.1
20260904044018 69 203 0.0 2.0 0.01 0.36 0.00 99 1017.2
20260904043023 69 181 2.0 4.0 0.01 0.36 0.00 99 1017.2
20260904042029 69 174 3.0 5.0 0.02 0.36 0.00 99 1017.6
20260904041015 69 180 0.0 2.0 0.02 0.36 0.00 99 1017.9
20260904040020 69 174 1.0 3.0 0.02 0.36 0.00 99 1018.1
20260904035045 69 176 1.0 3.0 0.03 0.36 0.36 99 1018.4
20260904034031 69 154 2.0 3.0 0.02 0.35 0.35 99 1018.6
20260904032534 70 135 3.0 4.0 0.02 0.34 0.34 99 1019.6
20260904025530 72 162 4.0 6.0 0.02 0.34 0.34 96 1020.0
20260904024517 73 3.0 3.0 0.01 0.33 0.33 99 1019.9
20260904023522 73 223 5.0 11.0 0.01 0.33 0.33 97 1019.6
20260904022527 73 245 1.0 2.0 0.00 0.32 0.32 99 1019.0
20260904021532 74 264 2.0 2.0 0.00 0.32 0.32 98 1018.5
20260904020519 75 239 2.0 3.0 0.00 0.32 0.32 97 1017.9
20260904015545 77 167 3.0 4.0 0.00 0.32 0.32 93 1017.8
20260904014530 78 272 4.0 8.0 0.00 0.32 0.32 91 1018.8
20260904013538 78 270 8.0 12.0 0.00 0.32 0.32 99 1018.1
20260904012521 77 183 2.0 4.0 0.00 0.32 0.32 99 1018.0
20260904011527 76 0.0 2.0 0.00 0.32 0.32 99 1017.8
20260904010551 76 0.0 0.0 0.00 0.32 0.32 99 1017.6
20260904005519 76 0.0 0.0 0.00 0.32 0.32 99 1017.6
20260904004523 77 0.0 0.0 0.00 0.32 0.32 99 1017.6
20260904003529 77 0.0 0.0 0.00 0.32 0.32 99 1017.6
20260904002516 77 0.0 0.0 0.00 0.32 0.32 99 1017.7
20260904001520 77 0.0 0.0 0.00 0.32 0.32 99 1017.8
20260904000526 78 0.0 0.0 0.00 0.32 0.32 99 1017.8
20260903235531 78 0.0 0.0 0.00 0.32 0.32 99 1018.1
20260903234518 78 0.0 0.0 0.00 0.32 0.32 99 1018.1
20260903233522 79 0.0 0.0 0.00 0.32 0.32 99 1017.6
20260903232528 80 0.0 0.0 0.00 0.32 0.32 98 1017.2
20260903231547 81 0.0 0.0 0.00 0.32 0.32 97 1017.1
20260903230520 82 0.0 0.0 0.00 0.32 0.32 94 1017.1
20260903225525 83 0.0 0.0 0.00 0.32 0.32 92 1017.4
20260903224524 85 0.0 0.0 0.00 0.32 0.32 89 1017.2
20260903223516 85 210 0.0 2.0 0.00 0.32 0.32 86 1017.3
20260903222521 86 207 2.0 3.0 0.00 0.32 0.32 84 1017.0
20260903221521 87 226 3.0 5.0 0.00 0.32 0.32 83 1017.0
20260903220519 88 227 3.0 4.0 0.00 0.32 0.32 81 1017.0
20260903215519 88 215 3.0 5.0 0.00 0.32 0.32 81 1016.9
20260903214517 89 201 3.0 6.0 0.00 0.32 0.32 80 1017.0
20260903213517 87 194 4.0 7.0 0.00 0.32 0.32 81 1017.0
20260903212516 86 198 3.0 7.0 0.00 0.32 0.32 83 1017.0
20260903211521 87 224 5.0 9.0 0.00 0.32 0.32 82 1017.1
20260903210546 86 226 4.0 8.0 0.00 0.32 0.32 82 1017.1
20260903205551 86 178 6.0 9.0 0.00 0.32 0.32 83 1017.1
20260903204519 87 223 5.0 8.0 0.00 0.32 0.32 81 1017.2
20260903203523 86 194 4.0 6.0 0.00 0.32 0.32 82 1017.3
20260903202528 85 235 4.0 7.0 0.00 0.32 0.32 82 1017.6
20260903201535 86 237 6.0 9.0 0.00 0.32 0.32 80 1017.6
20260903200520 86 229 6.0 8.0 0.00 0.32 0.32 80 1017.6
20260903195525 85 222 5.0 7.0 0.00 0.32 0.32 81 1017.8
20260903194550 85 189 5.0 10.0 0.00 0.32 0.32 82 1017.8
20260903193517 85 210 6.0 15.0 0.00 0.32 0.32 82 1018.1
20260903192522 84 226 6.0 9.0 0.00 0.32 0.32 83 1018.1
20260903191527 84 203 6.0 10.0 0.00 0.32 0.32 84 1018.2
20260903190532 84 265 6.0 11.0 0.00 0.32 0.32 84 1018.3
20260903185539 84 248 5.0 7.0 0.00 0.32 0.32 82 1018.3
20260903184524 84 259 6.0 9.0 0.00 0.32 0.32 82 1018.6
20260903183529 84 250 6.0 13.0 0.00 0.32 0.32 81 1018.8
20260903182516 84 241 6.0 8.0 0.00 0.32 0.32 82 1018.8
20260903181521 83 206 5.0 8.0 0.00 0.32 0.32 83 1018.9
20260903180526 82 213 5.0 8.0 0.00 0.32 0.32 84 1019.1
20260903175532 82 224 6.0 10.0 0.00 0.32 0.32 84 1019.2
20260903174518 81 226 6.0 9.0 0.00 0.32 0.32 86 1019.4
20260903173524 81 242 7.0 9.0 0.00 0.32 0.32 86 1019.5
20260903172528 81 244 7.0 11.0 0.00 0.32 0.32 87 1019.5
20260903171533 81 223 7.0 11.0 0.00 0.34 0.32 85 1019.5
20260903170520 80 255 7.0 11.0 0.00 0.34 0.32 87 1019.6
20260903165525 80 232 7.0 12.0 0.00 0.36 0.32 89 1019.9
20260903164530 79 206 5.0 9.0 0.00 0.37 0.32 90 1020.0
20260903163517 78 260 5.0 6.0 0.00 0.38 0.32 93 1020.1
20260903162602 77 206 6.0 9.0 0.00 0.40 0.32 93 1020.4
20260903161547 78 261 7.0 12.0 0.00 0.42 0.32 93 1020.6
20260903160532 78 276 6.0 15.0 0.00 0.45 0.32 94 1020.6
20260903155519 76 217 8.0 11.0 0.00 0.50 0.32 97 1020.9
20260903154524 77 266 9.0 13.0 0.02 0.64 0.32 97 1021.5
20260903153528 75 249 7.0 11.0 0.02 0.64 0.32 99 1020.7
20260903152516 75 255 5.0 7.0 0.04 0.64 0.32 99 1020.6
20260903151541 74 260 3.0 5.0 0.04 0.64 0.32 99 1020.4
20260903150526 72 165 1.0 2.0 0.06 0.64 0.32 99 1020.2
20260903145530 71 192 5.0 8.0 0.08 0.64 0.32 99 1020.4
20260903144538 0 0.0 0.0 0.06 0.62 0.30 1021.0
20260903143522 0 0.0 0.0 0.06 0.62 0.30 1022.0
20260903142528 71 3.0 3.0 0.04 0.60 0.28 99 1022.6
20260903141533 71 184 2.0 3.0 0.04 0.60 0.28 99 1022.9
20260903140520 72 310 5.0 9.0 0.02 0.58 0.26 99 1023.2
20260903135524 72 337 7.0 13.0 0.00 0.56 0.24 99 1020.9
20260903134530 73 266 4.0 6.0 0.00 0.56 0.24 99 1020.8
20260903133536 73 266 5.0 7.0 0.00 0.56 0.24 99 1020.5
20260903132521 73 239 4.0 7.0 0.00 0.56 0.24 99 1020.8
20260903131527 73 250 5.0 9.0 0.00 0.56 0.24 99 1020.8
20260903130526 72 287 2.0 3.0 0.00 0.56 0.24 99 1020.7
20260903125519 72 211 3.0 6.0 0.00 0.56 0.24 99 1021.0
20260903124524 71 240 6.0 10.0 0.00 0.56 0.24 99 1021.0
20260903123523 71 246 2.0 4.0 0.00 0.56 0.24 99 1020.8
20260903122516 71 284 1.0 3.0 0.01 0.56 0.24 99 1020.8
20260903121521 70 174 2.0 3.0 0.02 0.56 0.24 99 1020.9
20260903120520 69 248 2.0 3.0 0.02 0.56 0.24 99 1021.1
20260903115519 0 256 2.0 2.0 0.03 0.56 0.24 1021.1
20260903114517 69 238 3.0 4.0 0.04 0.56 0.24 99 1020.9
20260903113517 68 269 2.0 3.0 0.05 0.56 0.24 99 1020.6
20260903112516 68 187 1.0 3.0 0.05 0.55 0.23 99 1020.5
20260903111533 68 248 2.0 4.0 0.04 0.54 0.22 99 1020.3
20260903110540 68 275 3.0 4.0 0.04 0.54 0.22 99 1020.4
20260903105524 68 139 3.0 4.0 0.03 0.53 0.21 99 1021.3
20260903104530 68 158 0.0 3.0 0.02 0.52 0.20 99 1022.2
20260903103517 68 251 2.0 3.0 0.17 0.51 0.19 99 1021.9
20260903102521 68 0.0 0.0 0.17 0.50 0.18 99 1021.8
20260903101526 68 197 1.0 2.0 0.17 0.50 0.18 99 1021.5
20260903100551 69 207 1.0 3.0 0.18 0.50 0.18 99 1021.5
20260903095539 69 138 1.0 3.0 0.18 0.50 0.18 99 1022.4
20260903094524 69 0.0 0.0 0.18 0.50 0.18 99 1022.9
20260903093549 69 287 3.0 4.0 0.02 0.34 0.02 99 1021.7
20260903092536 69 154 2.0 4.0 0.01 0.33 0.01 99 1021.7
20260903091521 69 183 3.0 4.0 0.01 0.33 0.01 99 1022.0
20260903090525 70 72 2.0 4.0 0.00 0.32 0.00 99 1022.0
20260903085531 70 331 4.0 7.0 0.00 0.32 0.00 99 1021.3
20260903084518 70 173 2.0 4.0 0.00 0.32 0.00 99 1021.3
20260903083522 70 178 3.0 4.0 0.00 0.32 0.00 99 1021.7
20260903082528 69 152 1.0 3.0 0.00 0.32 0.00 99 1021.4
20260903081533 69 178 2.0 4.0 0.00 0.32 0.00 99 1021.4
20260903080540 69 258 2.0 5.0 0.00 0.32 0.00 99 1021.3
20260903075524 69 154 2.0 5.0 0.00 0.32 0.00 99 1021.4
20260903074530 69 139 3.0 4.0 0.00 0.32 0.00 99 1021.1
20260903073517 70 263 4.0 7.0 0.00 0.32 0.00 99 1021.4
20260903072522 69 317 3.0 5.0 0.00 0.32 0.00 99 1020.4
20260903071527 69 0.0 0.0 0.00 0.32 0.00 99 1020.2
20260903070532 69 0.0 0.0 0.00 0.32 0.00 99 1020.1
20260903065539 69 180 0.0 2.0 0.00 0.32 0.00 99 1020.1